Temperature
17 17 17 17 17 17 17 17 18 19 19 18 17 16 16 16 16 15 15 16 16 16 15 15 15 15 15 15 15 14 14 14 14 14 14 14 14 13
17 17 17 17 17 17 17 17 17 18 18 18 17 16 16 16 16 16 15 16 16 15 15 15 15 15 15 15 14 14 14 14 14 14 14 14 13 13
17 17 17 17 17 17 17 17 17 17 17 17 17 16 16 16 16 15 15 15 15 15 15 15 15 15 15 14 14 14 14 14 14 14 14 13 13 13
17 17 17 17 16 16 17 17 17 16 16 16 16 16 16 15 15 16 15 15 15 15 15 15 15 15 14 14 14 14 14 14 14 14 14 13 13 13
17 16 16 16 16 16 16 16 16 16 16 16 16 16 16 15 15 15 15 15 15 15 15 15 15 15 14 14 14 14 14 14 14 14 14 13 13 13
16 16 16 16 16 16 16 16 16 16 16 16 16 16 16 15 15 15 15 15 15 15 15 15 15 14 14 14 14 14 14 14 14 14 14 13 13 13
16 16 16 16 16 16 16 16 16 16 16 16 16 16 16 15 15 15 15 15 15 14 14 14 14 14 14 14 14 14 14 14 14 14 13 13 13 13
16 16 16 16 16 16 16 16 16 15 15 15 16 16 15 15 15 15 15 15 15 15 14 14 14 14 14 14 14 14 14 14 14 13 13 13 13 13
16 16 16 16 16 15 15 15 15 15 15 15 15 15 15 15 14 14 14 14 14 14 14 14 14 14 14 14 14 14 14 13 13 13 13 13 13 13
16 16 15 15 15 15 15 15 15 15 15 15 15 15 14 14 14 14 14 14 14 14 14 14 14 14 14 14 14 14 13 13 13 13 13 13 13 12
15 15 15 15 15 15 15 14 14 14 15 15 15 15 15 14 14 14 13 14 14 14 14 13 14 14 14 14 14 13 13 13 13 13 13 13 12 12
15 15 15 15 15 15 15 14 14 14 14 14 14 14 14 14 14 13 13 13 14 14 14 13 13 13 13 13 13 13 13 13 13 13 13 12 12 12
16 16 15 15 15 15 15 14 14 14 14 14 14 14 14 14 14 13 13 13 13 13 13 13 13 13 13 13 13 13 13 12 12 12 12 12 12 11
15 15 15 15 15 14 14 14 14 14 14 14 14 14 14 14 13 13 13 13 13 13 13 12 12 12 12 12 13 12 12 12 12 12 12 12 12 11
14 14 14 14 14 14 14 14 14 14 13 14 14 14 14 13 13 13 13 13 13 13 12 12 12 12 12 12 12 12 12 12 11 11 11 11 11 11
14 14 14 14 14 14 14 14 14 13 13 13 13 13 13 13 13 13 12 12 12 12 12 12 12 11 11 11 11 12 12 11 11 11 11 11 10 10
14 14 14 14 14 14 14 13 13 13 13 13 13 13 13 13 12 12 12 12 12 12 12 12 12 11 11 11 11 11 11 11 11 10 10 10 10 10
14 13 14 13 13 13 13 13 13 13 13 12 12 12 12 12 12 12 12 12 12 12 12 12 11 11 11 11 11 11 11 11 10 10 10 10 10 10
13 13 13 13 13 13 13 13 13 13 12 12 12 12 12 12 11 11 11 11 11 11 11 11 11 11 11 11 11 11 10 10 10 10 10 10 9 10
13 13 12 12 12 12 12 12 12 12 11 11 11 11 11 11 11 11 11 11 10 10 10 11 10 10 10 10 10 10 10 10 10 9 9 9 9 9
13 12 12 12 12 12 12 12 12 11 11 11 11 11 10 10 10 10 10 10 10 10 10 10 10 10 10 9 10 10 10 10 9 9 9 9 9 9
12 12 12 12 12 11 11 11 11 11 11 10 10 10 10 10 10 10 10 10 10 10 10 10 9 9 9 9 9 10 9 9 9 9 9 9 9 9
12 12 11 11 11 11 11 11 10 10 10 10 10 10 9 9 9 9 9 9 9 9 9 9 9 9 9 9 9 9 9 9 9 9 9 9 8 8
Wind_Speed
3 3 3 2 2 2 2 3 4 4 2 1 2 1 1 1 1 2 2 5 5 4 4 3 3 3 3 4 4 4 4 4 5 6 9 9 10 10
2 2 3 2 2 2 3 3 4 4 4 2 1 1 1 2 2 3 3 6 7 6 6 5 5 5 5 5 5 5 6 6 6 7 8 8 10 10
3 2 3 3 3 3 3 3 3 4 4 3 2 1 2 3 1 3 4 5 5 9 8 7 7 6 6 7 7 7 7 8 8 9 9 9 9 9
3 3 3 3 3 4 3 4 4 4 5 5 4 3 3 3 3 5 4 4 5 8 10 10 9 9 8 8 8 9 9 9 10 10 11 10 10 10
4 4 4 4 4 4 5 5 4 4 4 5 5 3 4 3 4 5 5 5 6 6 10 12 12 11 11 10 10 10 10 11 11 12 12 12 12 11
5 5 5 5 5 5 5 5 5 5 4 5 5 4 4 4 4 5 5 5 6 5 5 7 10 14 13 12 11 11 11 11 12 13 13 12 12 12
5 6 6 5 4 5 5 5 5 5 5 5 5 5 5 4 5 5 6 5 5 5 5 6 6 7 9 12 12 12 12 12 13 13 13 13 13 13
6 6 7 6 6 7 7 6 6 7 7 6 6 6 6 6 5 6 6 6 6 4 6 7 6 6 7 7 9 11 12 13 13 13 13 14 14 14
6 6 7 5 6 6 7 9 9 8 9 9 8 8 7 6 6 8 7 8 8 6 6 7 6 7 7 6 9 11 12 13 13 14 14 14 14 15
7 7 7 7 6 6 7 7 7 7 8 8 8 8 8 7 7 9 9 9 9 7 6 8 7 7 7 6 9 12 13 13 14 14 14 14 14 14
8 7 8 8 4 5 8 8 8 7 8 8 8 8 8 8 8 8 7 8 8 7 6 8 8 8 8 7 7 12 14 14 13 13 14 14 13 13
7 8 7 8 5 6 8 8 9 8 8 7 8 9 10 10 11 10 9 9 9 7 5 6 8 7 7 7 6 6 9 11 13 13 13 13 12 10
7 7 5 6 7 8 10 9 9 9 9 9 8 8 8 7 8 8 8 9 9 9 6 6 8 7 7 7 7 6 6 7 8 10 12 13 14 11
8 7 4 4 6 9 9 8 9 9 9 9 8 7 7 7 7 8 9 10 10 11 9 8 8 8 9 9 8 6 6 6 7 7 7 10 13 14
8 5 4 4 7 8 10 11 9 8 8 9 8 8 7 7 8 7 8 9 11 11 10 9 9 9 9 10 9 8 7 6 6 7 6 6 7 7
9 6 7 9 9 8 7 8 8 8 8 8 8 8 7 8 8 8 8 8 8 8 8 10 10 10 10 10 9 9 7 6 6 6 6 6 7 8
6 7 7 6 7 7 7 7 7 7 8 8 8 8 8 8 8 7 7 8 9 9 8 6 7 8 9 9 9 9 8 8 6 5 6 7 7 7
5 7 7 7 7 7 8 7 7 7 7 7 8 8 8 8 8 8 8 8 9 9 9 7 6 7 8 8 8 9 8 7 6 5 6 7 7 7
6 7 7 7 7 7 7 7 7 6 6 7 7 7 8 8 8 8 8 8 8 9 9 7 7 7 9 10 7 8 8 7 6 6 6 7 7 6
7 7 7 7 7 7 7 6 6 6 6 6 7 7 8 8 9 9 8 8 8 9 9 7 6 7 8 10 8 7 9 8 6 7 6 6 6 6
6 7 7 7 7 7 6 6 7 7 6 7 7 7 8 8 9 9 8 8 9 8 9 8 6 6 8 7 8 7 6 7 7 6 7 7 7 7
6 7 7 7 7 7 6 6 7 7 7 7 7 7 8 8 9 9 9 8 8 8 9 7 6 6 6 8 9 8 7 6 7 10 11 9 7 6
6 6 6 6 6 6 6 6 7 7 7 7 7 7 7 7 7 8 8 8 8 8 7 7 6 6 7 8 8 8 8 7 6 6 6 8 10 11
Wind_Direction
260 240 261 271 262 267 272 278 291 294 296 233 253 223 262 289 111 248 253 154 183 197 206 213 216 213 220 222 228 230 230 227 220 217 220 218 215 213
273 295 283 278 271 261 258 264 272 284 294 299 288 294 328 287 171 257 251 176 190 199 207 215 218 221 227 227 229 233 232 230 224 223 222 219 219 220
251 246 254 285 285 279 267 259 264 270 272 280 273 249 257 275 258 257 249 243 208 190 202 212 219 223 228 233 234 233 236 235 231 230 230 228 225 224
249 253 260 260 262 275 279 274 274 276 271 277 274 254 244 252 255 259 256 252 256 185 196 208 218 224 228 231 235 236 235 235 232 231 232 231 229 228
248 250 257 262 262 265 268 272 270 264 263 265 268 273 264 260 261 260 258 260 262 211 198 209 216 221 224 228 232 235 237 235 232 230 229 229 228 228
249 253 256 257 260 265 260 265 270 270 259 261 265 262 257 255 261 267 262 245 258 256 236 227 216 217 221 224 228 234 237 235 233 230 228 227 226 226
247 250 251 254 270 270 275 270 266 265 263 262 265 269 265 262 263 267 274 274 255 254 263 251 231 232 224 222 226 233 235 234 233 231 230 228 226 226
251 252 247 236 235 233 250 261 270 265 270 271 267 270 270 268 271 272 276 276 274 253 263 264 256 251 242 237 210 215 226 230 230 229 229 230 229 227
251 256 261 252 241 255 238 229 238 244 252 264 274 274 273 272 275 270 271 277 279 279 268 269 263 259 253 239 197 208 220 227 230 230 230 229 231 232
249 249 255 263 257 259 262 258 256 248 243 248 266 271 273 273 266 267 272 267 265 260 259 270 271 269 267 253 202 207 216 222 228 230 230 228 230 232
250 249 251 252 241 251 257 261 263 259 233 229 244 254 262 261 265 269 268 267 270 265 252 263 272 274 270 263 231 206 216 219 225 229 229 228 229 231
245 242 239 247 232 225 250 258 262 265 268 256 243 243 248 243 234 249 264 268 275 274 264 261 270 276 272 263 260 242 227 221 222 226 227 224 221 230
260 253 239 196 221 231 246 254 259 267 266 264 260 255 250 249 245 243 252 264 272 273 276 263 271 271 270 277 273 262 252 248 234 230 224 220 218 223
266 268 257 184 224 236 242 253 257 261 263 265 264 263 263 263 262 258 250 251 258 266 274 273 274 273 274 275 276 270 260 252 250 249 241 220 220 223
269 293 292 231 234 238 234 240 245 254 260 262 262 263 266 271 269 261 254 250 254 257 258 257 262 267 267 271 275 273 269 262 251 250 247 239 236 230
261 252 227 230 242 259 249 237 244 253 257 261 265 267 268 266 262 266 267 263 263 261 248 246 250 258 261 267 271 272 269 265 256 254 252 246 237 233
264 261 259 254 249 250 251 250 250 250 252 258 264 270 269 266 267 266 266 268 267 270 267 255 248 245 254 262 266 267 269 267 262 251 251 253 246 235
261 262 262 263 263 261 259 256 252 254 258 260 262 266 269 271 271 270 266 267 270 272 272 269 265 266 258 255 244 263 267 270 266 247 246 252 251 242
249 262 268 270 270 272 272 270 268 267 267 266 267 269 269 269 270 269 267 270 272 274 274 272 268 266 268 269 253 231 260 267 262 254 248 249 252 250
255 264 269 272 274 275 275 274 275 274 270 272 274 275 274 273 271 271 271 272 273 274 273 268 262 264 267 276 280 269 239 255 264 261 261 260 257 248
261 263 267 270 273 274 276 276 273 270 271 273 273 274 275 276 276 274 272 268 267 269 270 270 273 266 272 272 269 269 261 226 237 255 262 264 262 253
267 267 268 272 273 274 274 272 272 271 271 270 274 275 276 279 278 278 277 273 266 267 272 275 273 268 269 263 265 272 274 268 243 228 232 242 256 257
275 278 279 279 277 275 274 274 275 277 278 278 279 278 278 280 278 277 275 277 280 277 276 278 279 276 275 267 268 271 272 272 269 263 252 223 224 242
Height
1549 1548 1547 1547 1547 1546 1546 1546 1546 1544 1543 1542 1542 1540 1539 1537 1535 1534 1533 1531 1530 1529 1528 1527 1527 1526 1525 1525 1524 1524 1524 1524 1524 1525 1525 1526 1527 1527
1546 1546 1545 1546 1545 1544 1544 1544 1543 1543 1542 1541 1540 1539 1537 1536 1534 1532 1531 1529 1528 1527 1526 1526 1525 1524 1523 1523 1522 1522 1521 1521 1522 1522 1522 1523 1523 1524
1545 1544 1543 1543 1543 1543 1543 1542 1541 1541 1540 1539 1538 1536 1534 1533 1532 1530 1529 1528 1527 1525 1524 1523 1522 1521 1520 1520 1519 1519 1519 1519 1519 1519 1520 1520 1520 1521
1543 1542 1542 1542 1541 1540 1540 1540 1539 1538 1537 1536 1535 1534 1532 1531 1529 1528 1527 1526 1525 1523 1521 1520 1519 1518 1518 1517 1517 1516 1516 1516 1516 1516 1516 1517 1517 1517
1541 1540 1540 1539 1538 1538 1537 1537 1537 1536 1535 1534 1533 1532 1531 1529 1527 1526 1525 1523 1522 1521 1518 1517 1516 1515 1515 1514 1513 1513 1512 1512 1512 1512 1513 1513 1513 1513
1538 1538 1537 1537 1536 1535 1535 1534 1533 1533 1532 1531 1530 1529 1527 1526 1524 1523 1522 1520 1519 1519 1516 1514 1513 1512 1511 1510 1509 1509 1508 1508 1508 1508 1508 1508 1509 1509
1535 1534 1534 1533 1532 1532 1532 1531 1530 1529 1529 1528 1527 1526 1525 1523 1522 1520 1519 1518 1516 1515 1514 1512 1510 1509 1507 1506 1505 1504 1504 1504 1503 1503 1503 1503 1504 1504
1532 1531 1531 1530 1528 1528 1527 1526 1526 1525 1525 1524 1523 1522 1520 1519 1518 1517 1516 1514 1513 1512 1510 1509 1508 1505 1504 1503 1501 1500 1499 1499 1498 1498 1498 1498 1498 1499
1528 1528 1528 1527 1525 1525 1523 1522 1521 1520 1520 1519 1519 1517 1517 1515 1514 1513 1511 1510 1509 1508 1506 1504 1503 1502 1500 1498 1496 1496 1495 1494 1493 1493 1492 1492 1492 1493
1524 1523 1523 1523 1522 1521 1520 1519 1518 1516 1515 1515 1513 1512 1512 1510 1509 1508 1506 1505 1503 1502 1501 1500 1499 1497 1496 1494 1492 1490 1490 1489 1488 1487 1487 1487 1487 1487
1520 1519 1518 1518 1517 1517 1516 1515 1514 1513 1511 1510 1509 1507 1506 1505 1504 1503 1502 1501 1499 1498 1497 1495 1494 1492 1491 1489 1487 1485 1484 1483 1483 1482 1481 1481 1481 1481
1515 1514 1513 1513 1512 1512 1511 1510 1509 1508 1507 1506 1504 1502 1501 1500 1499 1498 1497 1497 1494 1493 1491 1490 1489 1488 1486 1484 1483 1481 1479 1478 1477 1476 1476 1476 1476 1476
1512 1511 1509 1508 1507 1506 1506 1505 1504 1503 1502 1501 1500 1498 1497 1495 1494 1493 1491 1490 1489 1488 1487 1485 1484 1483 1481 1479 1478 1476 1475 1473 1472 1471 1470 1470 1470 1470
1507 1506 1505 1503 1502 1501 1500 1499 1498 1497 1497 1496 1495 1493 1492 1490 1489 1487 1485 1484 1483 1482 1481 1480 1479 1477 1476 1474 1472 1471 1470 1469 1468 1466 1466 1465 1464 1464
1501 1500 1499 1497 1496 1495 1494 1493 1493 1492 1491 1490 1489 1487 1486 1485 1484 1482 1480 1478 1476 1475 1475 1473 1472 1472 1471 1469 1467 1466 1464 1463 1462 1461 1460 1459 1459 1458
1496 1494 1493 1492 1491 1490 1489 1488 1487 1486 1485 1485 1483 1482 1481 1479 1478 1477 1475 1474 1472 1470 1468 1467 1466 1465 1464 1463 1462 1460 1459 1457 1456 1456 1454 1454 1453 1453
1490 1489 1488 1487 1486 1485 1484 1483 1482 1481 1479 1478 1477 1476 1475 1474 1472 1471 1470 1468 1467 1465 1463 1462 1460 1459 1458 1457 1455 1454 1453 1452 1451 1450 1449 1448 1448 1447
1485 1484 1483 1482 1481 1480 1479 1478 1476 1475 1474 1473 1471 1470 1469 1468 1466 1465 1464 1462 1461 1459 1458 1456 1455 1454 1452 1450 1450 1448 1447 1446 1445 1444 1444 1443 1442 1442
1480 1479 1478 1477 1476 1474 1473 1472 1471 1469 1468 1467 1466 1464 1463 1461 1460 1459 1458 1456 1455 1454 1452 1451 1450 1449 1447 1445 1443 1443 1442 1440 1440 1439 1438 1438 1437 1437
1475 1474 1473 1472 1471 1470 1468 1467 1465 1464 1462 1461 1460 1458 1457 1455 1454 1453 1451 1450 1449 1447 1446 1445 1443 1442 1441 1440 1439 1437 1437 1436 1435 1434 1433 1433 1432 1432
1470 1469 1468 1467 1466 1465 1463 1462 1460 1458 1457 1456 1454 1453 1451 1449 1448 1446 1445 1443 1442 1440 1439 1438 1437 1436 1435 1434 1433 1431 1431 1430 1429 1428 1428 1428 1427 1427
1465 1464 1463 1462 1461 1459 1458 1456 1455 1453 1452 1450 1448 1447 1445 1443 1441 1439 1438 1436 1434 1433 1432 1432 1431 1430 1429 1428 1426 1425 1424 1424 1423 1423 1422 1422 1422 1421
1461 1460 1458 1457 1456 1454 1453 1451 1450 1449 1447 1445 1444 1441 1439 1437 1435 1434 1432 1430 1429 1427 1427 1426 1426 1425 1423 1422 1421 1420 1419 1418 1418 1417 1417 1416 1416 1416